SCP
0 0 0 0 0 0 0 0 0 0 0 0 0 0 0 0 0 0 0 0 0 0 0 0 0 0 0 0 0 0 0 0 0 0 0 0 0 0 0 0 0 0 0
0 0 0 0 0 0 0 0 0 0 0 0 0 0 0 0 0 0 0 0 0 0 0 0 0 0 0 0 0 0 0 0 0 0 0 0 0 0 0 0 0 0 0
0 0 0 0 0 0 0 0 0 0 0 0 0 0 0 0 0 0 0 0 0 0 0 0 0 0 0 0 0 0 0 0 0 0 0 0 0 0 0 0 0 0 0
0 0 0 0 0 0 0 0 0 0 0 0 0 0 0 0 0 0 0 0 0 0 0 0 0 0 0 0 0 0 0 0 0 0 0 0 0 0 0 0 0 0 0
0 0 0 1 1 0 0 0 0 0 0 0 0 0 0 0 0 0 0 0 0 0 0 0 0 0 0 0 0 0 0 0 0 0 0 0 0 0 0 0 0 0 0
0 0 1 1 1 0 0 0 0 0 0 0 0 0 0 0 0 0 0 0 0 0 0 0 0 0 0 0 0 0 0 0 0 0 0 0 0 0 0 0 0 0 0
0 1 1 1 1 0 0 0 0 0 0 0 0 0 0 0 0 0 0 0 0 0 0 0 0 0 0 0 0 0 0 0 0 0 0 0 0 0 0 0 0 0 0
1 1 1 1 1 0 0 0 0 0 0 0 0 0 0 0 0 0 0 0 0 0 0 0 0 0 0 0 0 0 0 0 0 0 0 0 0 0 0 0 0 0 0
1 1 1 0 0 0 0 0 0 0 0 0 0 0 0 0 0 0 0 0 0 0 0 0 0 0 0 0 0 0 0 0 0 0 0 0 0 0 0 0 0 0 0
1 1 1 0 0 0 0 0 0 0 0 0 0 0 0 0 0 0 0 0 0 0 0 0 0 0 0 0 0 0 0 0 0 0 0 0 0 0 0 0 0 0 0
1 1 1 0 0 0 0 0 0 0 0 0 0 0 0 0 0 0 0 0 0 0 0 0 0 0 0 0 0 0 0 0 0 0 0 0 0 0 0 0 0 0 0
1 1 1 0 0 0 0 0 0 0 0 0 0 0 0 0 0 0 0 0 0 0 0 0 0 0 0 0 0 0 0 0 0 0 0 0 0 0 0 0 0 0 0
1 1 1 1 0 0 0 0 0 0 0 0 0 0 0 0 0 0 0 0 0 0 0 0 0 0 0 0 0 0 0 0 0 0 0 0 0 0 0 0 0 0 0
1 1 1 1 1 1 1 1 0 0 0 0 0 0 0 0 0 0 0 0 0 0 0 0 0 0 0 0 0 0 0 0 0 0 0 0 0 0 0 0 0 0 0
1 1 1 1 1 1 1 1 1 0 0 0 0 0 0 0 0 0 0 0 0 0 0 0 0 0 0 0 0 0 0 0 0 0 0 0 0 0 0 0 0 0 0
1 1 1 1 1 1 1 1 1 0 0 0 0 0 0 0 0 0 0 0 0 0 0 0 0 0 0 0 0 0 0 0 0 0 0 0 0 0 0 0 0 0 0
1 1 1 1 1 1 1 1 1 1 0 0 0 0 0 0 0 0 0 0 0 0 0 0 0 0 0 0 0 0 0 0 0 0 0 0 0 0 0 0 0 0 0
1 1 1 1 1 1 0 0 0 0 0 0 0 0 0 0 0 0 0 0 0 0 0 0 0 0 0 0 0 0 0 0 0 0 0 0 0 0 0 0 0 0 0
1 1 1 1 1 0 0 0 0 0 0 0 0 0 0 0 0 0 0 0 0 0 0 0 0 0 0 0 0 0 0 0 0 0 0 0 0 0 0 0 0 0 0
1 1 1 1 0 0 0 0 0 0 0 0 0 0 0 0 0 0 0 0 0 0 0 0 0 0 0 0 0 0 0 0 0 0 0 0 0 0 0 0 0 0 0
1 1 1 0 0 0 0 0 0 0 0 0 0 0 0 0 0 0 0 0 0 0 0 0 0 0 0 0 0 0 0 0 0 0 0 0 0 0 0 0 0 0 0
0 0 0 0 0 0 0 0 0 0 0 0 0 0 0 0 0 0 0 0 0 0 0 0 0 0 0 0 0 0 0 0 0 0 0 0 0 0 0 0 0 0 0
0 0 0 0 0 0 0 0 0 0 0 0 0 0 0 0 0 0 0 0 0 0 0 0 0 0 0 0 0 0 0 0 0 0 0 0 0 0 0 0 0 0 0
0 0 0 0 0 0 0 0 0 0 0 0 0 0 0 0 0 0 0 0 0 0 0 0 0 0 0 0 0 0 0 0 0 0 0 0 0 0 0 0 0 0 0
0 0 0 0 0 0 0 0 0 0 0 0 0 0 0 0 0 0 0 0 0 0 0 0 0 0 0 0 0 0 0 0 0 0 0 0 0 0 0 0 0 0 0
0 0 0 0 0 0 0 0 0 0 0 0 0 0 0 0 0 0 0 0 0 0 0 0 0 0 0 0 0 0 0 0 0 0 0 0 0 0 0 0 0 0 0
Wind_Speed
10 12 12 12 13 13 13 13 13 13 14 14 14 14 14 14 13 13 13 13 13 13 14 14 15 15 15 15 15 15 15 15 15 15 15 15 15 15 14 12 11 13 15
13 13 12 12 13 13 13 13 13 13 13 13 14 14 14 14 13 13 13 13 13 14 14 14 14 15 15 15 15 15 15 15 14 12 11 12 13 14 14 14 14 12 15
14 14 14 11 13 13 13 13 13 13 12 12 13 13 13 13 13 13 13 13 13 13 14 14 14 14 14 14 14 14 14 14 12 7 6 11 13 14 14 14 15 15 15
14 13 13 12 13 13 13 13 13 12 12 12 12 12 13 13 13 13 13 13 13 13 14 14 14 14 14 13 13 13 13 12 8 3 7 10 11 14 14 14 14 14 15
13 12 13 12 13 13 13 13 13 12 12 12 12 12 12 12 13 13 12 12 13 13 13 13 13 13 13 13 13 13 12 10 4 6 9 9 10 13 13 14 14 14 14
13 12 13 11 12 12 12 12 12 12 12 12 12 12 12 12 12 13 12 12 12 12 13 13 12 12 12 12 12 12 10 6 4 8 9 9 10 12 13 13 13 14 14
12 11 13 11 12 12 12 11 11 12 12 11 12 12 12 12 12 12 12 11 11 12 12 12 12 12 12 12 11 10 8 3 6 8 8 9 10 13 13 13 13 13 13
12 11 12 11 11 11 11 11 10 10 11 11 11 11 11 12 12 12 12 11 11 11 12 12 12 12 12 11 11 10 7 2 7 7 8 9 11 12 13 12 12 12 12
11 11 11 11 11 10 9 9 9 9 9 9 9 10 10 10 11 11 11 10 11 11 11 11 11 11 11 11 10 9 7 2 6 6 7 7 9 11 12 12 11 12 12
9 9 10 10 10 10 9 9 8 8 8 8 9 9 9 9 10 10 9 9 10 10 10 10 10 11 11 10 9 8 5 2 6 7 5 7 9 10 11 10 11 11 11
8 8 9 9 9 9 9 9 8 8 8 8 8 9 8 8 9 8 9 8 9 10 10 10 10 10 10 9 8 6 3 3 6 5 5 8 8 9 9 9 9 10 9
9 8 7 8 8 8 7 7 6 6 7 6 7 9 7 6 6 7 9 8 9 9 9 9 9 8 6 6 6 4 3 4 4 4 5 7 7 8 8 8 8 8 8
9 8 7 7 7 7 5 5 4 4 5 5 7 7 6 6 5 6 5 6 7 7 6 7 6 4 4 4 4 4 4 3 3 3 5 6 6 7 7 7 7 7 7
8 8 7 7 7 6 6 5 4 4 4 4 5 6 5 4 5 5 4 5 5 4 4 4 3 5 4 5 5 5 5 3 3 3 5 5 5 5 6 6 6 6 6
8 7 7 7 7 6 6 4 4 4 4 5 5 5 5 5 5 5 4 4 4 4 4 4 4 5 4 4 4 4 4 4 4 4 4 6 5 5 5 5 6 6 6
7 7 6 7 7 7 6 5 4 4 4 4 4 5 6 5 5 5 5 4 4 4 4 4 4 4 3 3 3 3 3 4 4 4 3 5 5 4 4 5 5 6 6
7 7 6 6 6 7 7 6 4 4 4 4 4 5 5 5 6 5 5 5 4 4 5 4 5 3 3 3 3 3 2 2 3 3 3 2 3 4 4 4 4 5 5
6 6 6 5 6 7 6 6 4 5 5 4 4 4 5 6 6 5 5 5 5 4 4 4 4 4 3 3 2 2 2 2 2 3 3 2 2 2 4 5 5 4 4
6 6 6 5 5 6 6 5 5 4 4 4 4 4 5 6 6 5 4 4 5 4 4 4 4 4 3 3 2 2 2 2 2 2 3 3 2 2 2 4 4 5 5
5 5 6 6 5 4 4 4 4 4 3 3 4 4 5 5 6 5 4 5 5 4 4 5 5 4 3 3 3 3 2 2 2 2 2 2 2 2 2 3 3 4 5
4 5 5 5 5 4 4 4 4 4 4 3 3 5 5 5 6 5 4 5 5 4 5 6 5 5 3 3 3 2 2 2 2 2 1 2 2 2 2 2 1 2 2
5 5 5 5 5 5 4 4 4 4 4 3 3 4 5 5 6 5 6 5 5 4 5 6 5 4 3 2 2 2 2 2 1 1 1 1 1 1 1 1 1 1 1
5 6 5 6 6 5 5 4 4 4 3 3 4 4 5 6 6 6 6 5 5 5 5 5 6 6 4 3 2 2 2 2 2 2 1 1 1 1 1 1 1 1 1
4 4 5 6 6 6 6 6 7 6 5 5 4 4 5 5 6 6 6 6 5 5 5 5 5 4 5 4 3 1 1 0 2 2 2 1 1 1 1 0 0 1 1
3 3 4 6 6 6 6 7 7 6 5 4 5 5 5 5 5 5 6 5 5 4 5 5 5 5 4 4 4 3 2 1 1 2 2 2 1 1 0 1 0 0 1
1 2 3 5 6 6 7 7 7 7 6 6 6 5 4 4 4 5 5 5 5 4 5 5 5 6 5 5 4 3 3 3 3 2 2 2 2 1 0 0 1 0 1
Wind_Direction
160 156 151 152 146 141 138 134 132 134 134 133 131 129 128 126 123 120 118 115 112 110 107 105 101 99 97 94 91 88 84 82 82 81 79 78 80 80 77 73 78 78 76
154 155 150 152 147 143 140 136 131 130 132 134 133 132 130 128 128 124 121 118 115 111 108 107 103 100 98 96 93 91 87 85 84 83 88 87 80 80 77 69 65 78 78
151 152 153 152 148 144 140 136 132 132 132 132 134 134 131 129 129 126 121 119 116 113 109 107 105 102 100 98 96 93 89 87 85 84 105 95 88 83 81 80 79 80 78
151 153 154 145 147 144 141 137 135 134 132 132 132 135 134 132 129 126 121 118 116 112 109 107 105 103 103 101 99 96 92 88 81 90 91 87 89 86 84 81 80 80 78
151 153 145 145 146 144 142 140 138 136 133 133 132 132 132 133 131 127 123 120 116 113 110 108 107 106 105 103 102 99 94 90 84 89 87 87 86 86 85 82 81 81 79
152 151 144 147 145 142 142 143 142 140 137 134 133 132 131 130 129 127 125 121 118 116 114 113 111 110 109 107 105 102 96 94 114 89 90 88 87 89 87 84 83 82 80
150 148 145 142 141 142 142 141 142 143 140 137 136 134 132 130 127 124 121 121 122 121 119 117 116 114 113 110 107 102 94 72 93 94 90 86 86 91 89 86 82 80 79
148 146 144 137 135 136 139 139 138 141 140 138 138 137 134 130 126 125 123 122 123 125 123 120 119 117 115 111 108 101 88 78 102 95 92 88 86 91 89 87 84 81 79
148 148 147 148 141 132 130 131 133 131 131 131 132 131 129 126 126 127 125 125 125 122 122 122 123 119 115 112 109 101 88 34 101 96 94 88 88 90 88 86 85 83 79
150 152 152 153 152 149 142 127 125 123 121 123 122 119 120 124 125 125 128 123 121 121 119 118 120 120 115 111 109 105 108 149 101 99 94 92 90 92 91 87 85 84 81
154 157 157 156 154 151 148 139 136 128 122 125 126 123 138 145 139 138 123 116 119 117 118 118 117 118 118 112 108 116 151 121 107 95 91 88 94 95 93 89 85 84 85
166 167 163 159 155 153 150 151 153 150 148 155 151 152 154 147 136 132 112 108 111 112 113 113 117 131 147 133 129 159 132 116 106 102 91 89 96 96 96 95 91 88 87
171 167 163 161 157 155 153 156 155 154 155 158 157 157 152 142 139 140 138 131 130 135 132 132 147 142 135 129 136 133 118 109 103 104 97 91 97 99 98 100 99 96 92
172 172 166 163 161 159 155 156 158 157 158 158 159 162 158 150 152 146 147 145 148 147 143 144 141 136 132 133 133 130 127 121 115 107 95 87 91 100 101 100 101 101 96
174 173 170 168 166 161 155 156 160 161 163 158 158 166 162 157 155 152 149 147 147 147 151 146 142 137 134 132 125 126 124 122 120 116 109 93 84 90 100 101 99 101 98
177 176 174 174 168 166 162 161 162 162 161 160 160 164 162 157 155 154 150 151 149 151 147 146 140 139 133 132 128 126 123 123 119 117 111 113 94 78 87 98 93 94 96
182 175 174 172 171 172 168 166 164 163 163 163 161 166 166 162 161 159 156 157 154 152 148 141 136 134 126 125 122 118 121 119 114 116 113 112 115 97 81 86 83 82 85
183 177 172 168 172 173 170 169 164 166 165 163 163 167 169 166 166 162 160 160 157 156 153 150 148 140 137 132 122 111 111 111 110 107 111 109 107 108 97 78 65 69 68
185 178 169 164 169 171 166 164 161 159 160 157 160 166 170 169 167 165 161 158 160 158 158 155 152 148 142 129 113 99 87 90 97 109 104 96 87 89 98 95 82 66 59
185 175 170 161 158 161 159 156 149 147 149 152 158 163 166 167 170 166 159 158 160 159 159 161 149 144 138 131 116 89 67 71 69 78 94 101 97 91 91 98 107 88 66
179 173 170 164 160 160 161 166 168 166 161 161 160 161 167 168 169 167 161 159 167 168 167 163 152 149 145 146 139 119 96 78 70 59 65 93 95 92 84 86 90 100 102
189 181 175 174 170 170 173 173 175 168 167 164 160 167 168 170 169 170 169 165 169 165 163 166 163 159 150 173 184 170 167 157 112 57 62 88 101 107 98 79 75 71 88
197 192 185 180 174 174 168 160 150 152 152 161 170 176 178 176 174 173 175 170 169 170 172 177 180 177 168 174 204 215 198 190 151 137 111 96 90 100 103 93 64 46 35
209 195 192 182 176 176 173 171 168 171 173 179 179 178 176 175 176 177 177 174 173 178 179 183 188 189 182 179 182 241 306 93 186 168 163 141 97 60 28 81 86 46 18
212 193 191 183 177 175 177 178 178 176 175 171 169 170 169 172 177 178 180 178 178 182 185 185 186 192 194 193 184 182 187 190 227 213 195 183 180 172 276 297 318 350 345
227 201 189 183 180 178 182 184 185 181 175 168 171 171 170 168 175 179 181 182 182 183 188 191 194 197 198 199 195 192 194 197 198 209 212 210 214 193 227 278 281 308 331